CZ-6A R/B, 67434

Orbit data source: Space-Track

CZ-6A R/B, 67434 is space debris in LEO originally from a launch on Tue, 13 Jan 2026 UTC launched from the Taiyaun Space Center, China (TSC). Debris objects in space refer to the collection of defunct objects orbiting the Earth. Examples of debris include non-operational satellites, rocket bodies, and fragments generated from explosions, collisions, or faulty payload assembly.

Loading next visibility...
Identifier
67434, 2026-006B
Orbit
LEO
Country
Flag of CNCN / PRC
Related business
Manufacturer
SAST
Mission
Spacecraft
Bus & Motor
CZ-6A STAGE 2, YF-115
Mass
~6,000 kg wet, ~6,000 kg dry
Launch date (UTC)
2026-01-13 (5 months ago)
Launch vehicle
Unknown
Launch site
Taiyaun Space Center, China (TSC)
Object type
Payload
Rocket body
Debris
Shape & HBR
Unknown shape, 3.6 m
Radar Cross Section
Large (>1 m²)

Expand to show TLE details & history
Last TLE update: 22 hours ago

TLE from 22 hours ago
0 CZ-6A R/B
1 67434U 26006B   26171.04301303  .00001119  00000-0  11477-3 0  9994
2 67434 142.0476 334.7554 0201334 159.6740 201.2131 14.62555654 23060
Epoch: 2026-06-20T01:01Z
TLE epoch observation values (Epoch: 2026-06-20T01:01:56.325Z)
Latitude
0.00002°
Longitude
51.00737°
Altitude
817.081 km
Speed
7.376 km/s
True Right ascension
22h 19m 01s
True Declination
0° 00' 00"
Sunlit
Object was in daylight at epoch
Visualization orbit readout
Latitude
Unknown
Longitude
Unknown
Altitude
Unknown
Speed
Unknown
Apparent Right ascension
Unknown
Apparent Declination
Unknown
Sunlit
N/A
Visualization observer readout
Local Sidereal Time
10:19:05
Azimuth
Unknown
Elevation
Unknown
Doppler factor
Unknown
Orbital elements
Apogee altitude
829.897 km
Perigee altitude
545.38 km
Semi-major axis
7,065.776 km
Eccentricity
0.02013
Inclination
142.0476°
RAAN
334.7554°
Arg. of periapsis
159.674°
True anomaly
200.39748°
Mean anomaly
201.2131°
Eccentric anomaly
200.8034°
Mean motion
3.65429 °/min
Orbital period
98.51 mins
BSTAR
0.00011477
Loading maneuver chart data...
Computing Atmospheric mass density...
Loading historical data...
Loading historical data...
Loading historical data...
Loading historical data...
Loading historical data...
Loading historical data...
Loading historical data...
Other satellites on launch #6 in the year 2026 (2026-01-13 UTC)

Documentation

Showing up to 5 results
|